Main page
Satellite images Climate Cyclones Lightning AirportsFAQ Languages Contact Newsletter About
Weather : Europe Africa North America South America Asia Australia-Oceania Others

chittagong-bd, Chittagong, Shah Amanat International Airport

latitude: , longitude: Bangladesh, elevation: 22-16N m


METAR: VGEG 181400Z 33003KT 3200 RA SCT016 OVC080 20/19 Q1013 NOSIG